[[{"header":{"parameterUnit":"m.s-1","parameterCategory":2,"la1":30.2991,"la2":30.254,"lo1":-89.0895,"lo2":-89.0444,"dy":0.0017,"dx":0.0017,"nx":28,"ny":28,"refTime":"2025-03-10T21:00:00:Z","depth":"0","parameterNumber":2,"parameterNumberName":"U-component_of_CURRENTS"},"data":[0,0,0,0,0,0,0,0,0,0,0,0,0,0,0,0,0,0,0,0,0,0,0,0,0,0,0,0,0,0,0,0,0,0,0,0,0,0,0,0,0,0,0,0,0,0,0,0,0,0,0,0,0,0,0,0,0,0,0.3197,0.3198,0,0.3224,0.3223,0.3223,0.3244,0.3245,0.3245,0.3246,0.3154,0.3151,0.3148,0,0,0,0,0,0,0,0,0,0,0,0,0,0.3137,0.3138,0.3197,0.3198,0.3199,0.3224,0.3223,0.3223,0.3244,0.3245,0.3246,0.3246,0.3155,0.3151,0.3148,0,0,0,0,0,0,0,0,0,0,0,0,0,0.3158,0.3138,0.3197,0.3216,0.3219,0.3224,0.3223,0.3223,0.3243,0.3245,0.3246,0.3247,0.3156,0.3152,0.3147,0.3095,0,0,0.3133,0.3131,0,0,0,0,0,0,0,0,0.3156,0.3159,0.3213,0.3215,0.3218,0.3237,0.3169,0.3177,0.3243,0.3228,0.3246,0.3247,0.3174,0.3168,0.3163,0.3091,0.3087,0.3132,0.3129,0.3127,0.3126,0,0,0,0,0,0,0,0.3155,0.3158,0.3201,0.3214,0.3217,0.3215,0.3219,0.317,0.3187,0.3229,0.3232,0.3244,0.3174,0.3168,0.3161,0.3086,0.3132,0.3128,0.3125,0.3123,0.3013,0.3013,0,0,0,0,0,0,0.3164,0.3157,0.3201,0.3203,0.3196,0.3216,0.322,0.3225,0.319,0.3189,0.3244,0.3245,0.3175,0.3167,0.3158,0.3145,0.3127,0.3123,0.312,0.3013,0.3013,0.3013,0,0,0,0,0,0,0.3163,0.3167,0.32,0.3186,0.319,0.3217,0.3221,0.3225,0.3225,0.3204,0.3199,0.3242,0.3176,0.3164,0.3114,0.314,0.3121,0.3117,0.3013,0.3013,0.3013,0.3087,0,0,0,0,0,0,0.316,0.3166,0.3163,0.3186,0.3192,0.3196,0.3221,0.3225,0.3234,0.3236,0.32,0.3193,0.3176,0.3122,0.311,0.3133,0.3113,0.3013,0.3013,0.3013,0.3085,0.3089,0.3093,0,0,0,0,0,0.3158,0.3147,0.3163,0.3168,0.319,0.3196,0.3197,0.3216,0.3233,0.3222,0.3203,0.3195,0.3113,0.3116,0.3103,0.3126,0.3014,0.3013,0.3013,0.3083,0.3088,0.3093,0,0,0,0,0,0,0.3105,0.315,0.3167,0.3166,0.3181,0.3202,0.3196,0.3213,0.3192,0.3194,0.3174,0.3163,0.3136,0.3106,0.3111,0.3093,0.3069,0.3066,0.3127,0.3132,0.3136,0.3213,0.3109,0,0,0,0,0,0.3097,0.3104,0.3142,0.3135,0.3148,0.3172,0.3176,0.3194,0.3188,0.3182,0.3155,0.3133,0.3122,0.3107,0.3074,0.3046,0.3096,0.3056,0.3061,0.3065,0.3117,0.3214,0.3235,0.3012,0.3012,0.3012,0,0,0.3066,0.3098,0.3095,0.3125,0.3139,0.3146,0.3175,0.3183,0.3197,0.317,0.315,0.3133,0.3114,0.3099,0.3085,0.3079,0.3146,0.3064,0.3069,0.312,0.3217,0.3239,0.3259,0.3012,0.3012,0.3012,0,0,0.3009,0.3046,0.3031,0.3053,0.3089,0.3118,0.3123,0.3142,0.3162,0.3134,0.3147,0.3162,0.3081,0.3127,0.313,0.3134,0.3161,0.31,0.3193,0.3285,0.3306,0.3325,0.3397,0.3422,0.311,0.311,0.311,0,0.2972,0.2982,0.3022,0.3023,0.3062,0.3107,0.3119,0.3133,0.313,0.3179,0.3126,0.315,0.3118,0.3203,0.3208,0.3155,0.3198,0.3177,0.3298,0.3318,0.3337,0.3406,0.3433,0.3113,0.3113,0.3113,0.3112,0,0.2908,0.293,0.2927,0.2964,0.2996,0.3017,0.3074,0.3104,0.3129,0.3166,0.323,0.3209,0.3255,0.3234,0.3215,0.3344,0.3327,0.3291,0.3301,0.3365,0.3431,0.3459,0.3118,0.3117,0.3116,0.3115,0,0,0.2811,0.2876,0.2877,0.2926,0.2993,0.3025,0.3076,0.3176,0.3255,0.3249,0.3356,0.336,0.3403,0.3415,0.3417,0.3493,0.3635,0.3452,0.3455,0.3553,0.3837,0.3791,0.3816,0.362,0.3625,0.3629,0.3825,0,0.2765,0.2788,0.2837,0.2885,0.2928,0.3031,0.3087,0.3185,0.3255,0.3348,0.343,0.3484,0.3457,0.3487,0.3575,0.3615,0.3713,0.3586,0.3736,0.3742,0.3718,0.3849,0.3686,0.3845,0.3851,0.3856,0.3859,0,0.2698,0.2751,0.2788,0.2937,0.2965,0.2994,0.3187,0.3239,0.3404,0.3463,0.3588,0.3628,0.3777,0.3703,0.3901,0.3818,0.3859,0.3881,0.3888,0.3855,0.3749,0.3782,0.3894,0.3801,0.3901,0.3897,0.3894,0,0.2657,0.2735,0.2792,0.2827,0.2963,0.3032,0.3117,0.3278,0.3381,0.3548,0.3631,0.38,0.3878,0.3982,0.4048,0.3983,0.424,0.4147,0.4164,0.4159,0.4062,0.404,0.4136,0.4319,0.4319,0.4318,0.4318,0,0.2624,0.2672,0.2777,0.2808,0.2924,0.3017,0.3158,0.3269,0.3441,0.3579,0.369,0.3831,0.395,0.4096,0.4136,0.4262,0.4329,0.4246,0.4237,0.4074,0.4052,0.3996,0.3949,0.4326,0.4324,0.4323,0.4321,0,0.2564,0.2619,0.2703,0.2845,0.2898,0.2976,0.3174,0.3274,0.3429,0.3613,0.3671,0.3897,0.4084,0.4202,0.4373,0.4371,0.4367,0.4498,0.4293,0.4257,0.4135,0.4097,0.4079,0.3954,0.4553,0.4553,0.4554,0,0.2539,0.2564,0.2711,0.2777,0.2839,0.2973,0.3068,0.3246,0.3355,0.3659,0.3738,0.3985,0.4137,0.4388,0.4443,0.4552,0.4417,0.4451,0.4306,0.4177,0.4129,0.3941,0.3822,0.4195,0.4193,0.4191,0.4189,0,0.253,0.2566,0.2654,0.2761,0.2855,0.2968,0.3108,0.3195,0.341,0.3558,0.377,0.3915,0.4177,0.4237,0.4395,0.4433,0.4234,0.441,0.4343,0.3949,0.369,0.3545,0.4004,0.417,0.4172,0.4174,0.4175,0.4175,0.2552,0.2599,0.2698,0.2794,0.2875,0.2943,0.3002,0.3133,0.3279,0.3471,0.3681,0.3823,0.4009,0.4204,0.4226,0.4172,0.4129,0.405,0.4046,0.3891,0.368,0.4103,0.4204,0.4206,0.4208,0.421,0.4211,0,0.2627,0.267,0.274,0.2835,0.2861,0.2915,0.3018,0.3039,0.3129,0.3323,0.3467,0.3629,0.3735,0.3868,0.3931,0.3818,0.3611,0.3739,0.3441,0.3363,0.382,0.3711,0.3628,0.3628,0.3628,0.3628,0.3628,0.3629,0.2698,0.2767,0.2772,0.2809,0.2837,0.283,0.2854,0.2864,0.2951,0.3045,0.312,0.3248,0.3517,0.3732,0.368,0.3584,0.3305,0.3177,0.3171,0.3505,0.3531,0.3556,0.3444,0.3306,0.3306,0.253,0.2525,0.2521]},{"header":{"parameterUnit":"m.s-1","parameterCategory":2,"la1":30.2991,"la2":30.254,"lo1":-89.0895,"lo2":-89.0444,"dy":0.0017,"dx":0.0017,"nx":28,"ny":28,"refTime":"2025-03-10T21:00:00:Z","depth":"0","parameterNumber":3,"parameterNumberName":"V-component_of_CURRENTS"},"data":[0,0,0,0,0,0,0,0,0,0,0,0,0,0,0,0,0,0,0,0,0,0,0,0,0,0,0,0,0,0,0,0,0,0,0,0,0,0,0,0,0,0,0,0,0,0,0,0,0,0,0,0,0,0,0,0,0,0,-0.0376,-0.0377,0,-0.0399,-0.0399,-0.0399,-0.0446,-0.0448,-0.0449,-0.045,-0.0485,-0.0485,-0.0484,0,0,0,0,0,0,0,0,0,0,0,0,0,-0.0393,-0.0392,-0.0376,-0.0377,-0.0378,-0.04,-0.0399,-0.0399,-0.0446,-0.0448,-0.0449,-0.0451,-0.0485,-0.0485,-0.0484,0,0,0,0,0,0,0,0,0,0,0,0,0,-0.0395,-0.0392,-0.0376,-0.0406,-0.0409,-0.04,-0.0399,-0.0399,-0.0446,-0.0448,-0.045,-0.0451,-0.0485,-0.0485,-0.0484,-0.0445,0,0,-0.0483,-0.0483,0,0,0,0,0,0,0,0,-0.0395,-0.0394,-0.0401,-0.0404,-0.0408,-0.0425,-0.0419,-0.0416,-0.0445,-0.0428,-0.045,-0.0452,-0.0467,-0.0468,-0.0463,-0.0446,-0.0448,-0.0483,-0.0483,-0.0483,-0.0483,0,0,0,0,0,0,0,-0.0394,-0.0393,-0.0382,-0.0402,-0.0406,-0.0426,-0.0427,-0.0418,-0.0434,-0.043,-0.0434,-0.0442,-0.0468,-0.0463,-0.0464,-0.0448,-0.0483,-0.0483,-0.0483,-0.0482,-0.0448,-0.0448,0,0,0,0,0,0,-0.0395,-0.0392,-0.0381,-0.0383,-0.0409,-0.0424,-0.0426,-0.0415,-0.0434,-0.044,-0.044,-0.0444,-0.0463,-0.0465,-0.0466,-0.0454,-0.0483,-0.0482,-0.0482,-0.0449,-0.0448,-0.0447,0,0,0,0,0,0,-0.0395,-0.0393,-0.0381,-0.0393,-0.0393,-0.0422,-0.0409,-0.0414,-0.0413,-0.0442,-0.0448,-0.0435,-0.0464,-0.0466,-0.0456,-0.0454,-0.0482,-0.0482,-0.045,-0.0449,-0.0448,-0.0408,0,0,0,0,0,0,-0.0395,-0.0392,-0.0375,-0.0392,-0.0392,-0.0357,-0.0408,-0.0413,-0.0416,-0.0421,-0.0439,-0.0444,-0.0466,-0.0457,-0.0456,-0.0454,-0.0482,-0.0451,-0.0449,-0.0448,-0.041,-0.0406,-0.0402,0,0,0,0,0,-0.0395,-0.0354,-0.0373,-0.0372,-0.037,-0.0356,-0.0356,-0.0383,-0.0414,-0.0392,-0.0418,-0.0444,-0.0449,-0.0455,-0.0455,-0.0453,-0.0451,-0.045,-0.0448,-0.0412,-0.0407,-0.0402,0,0,0,0,0,0,-0.0326,-0.0356,-0.0377,-0.0341,-0.0346,-0.0365,-0.0345,-0.0373,-0.0375,-0.0382,-0.0422,-0.0427,-0.0422,-0.0434,-0.044,-0.044,-0.0459,-0.0457,-0.0432,-0.0426,-0.0422,-0.043,-0.0481,0,0,0,0,0,-0.031,-0.0302,-0.0324,-0.0292,-0.0292,-0.032,-0.0318,-0.0336,-0.0348,-0.0352,-0.0372,-0.0394,-0.0411,-0.0416,-0.0422,-0.0408,-0.0427,-0.041,-0.0406,-0.0403,-0.0408,-0.0443,-0.0443,-0.0442,-0.0442,-0.0442,0,0,-0.0274,-0.029,-0.0283,-0.028,-0.0286,-0.0272,-0.0321,-0.0305,-0.0305,-0.0352,-0.0344,-0.0371,-0.0402,-0.0398,-0.0398,-0.0411,-0.0405,-0.0401,-0.0397,-0.0405,-0.0441,-0.0441,-0.0442,-0.0441,-0.0441,-0.0441,0,0,-0.0199,-0.021,-0.0183,-0.0189,-0.02,-0.022,-0.0215,-0.0231,-0.0248,-0.024,-0.0292,-0.032,-0.0319,-0.0361,-0.0381,-0.0352,-0.0379,-0.035,-0.0338,-0.0371,-0.0372,-0.0373,-0.0364,-0.0365,-0.0352,-0.0352,-0.0352,0,-0.0155,-0.0133,-0.0166,-0.0145,-0.0149,-0.0196,-0.0167,-0.0182,-0.0197,-0.0211,-0.0228,-0.0277,-0.031,-0.0342,-0.0347,-0.0346,-0.0352,-0.0356,-0.0367,-0.0368,-0.037,-0.0362,-0.0364,-0.035,-0.035,-0.035,-0.035,0,-0.0074,-0.006,-0.0038,-0.0045,-0.0043,-0.0022,-0.0061,-0.0062,-0.0098,-0.013,-0.0158,-0.0209,-0.0244,-0.0267,-0.0304,-0.0336,-0.0329,-0.0355,-0.0382,-0.0368,-0.036,-0.0362,-0.0347,-0.0347,-0.0348,-0.0348,0,0,0.0026,0.0017,0.0022,0.0027,0.0003,0.0018,0.0014,-0.0005,-0.0002,-0.0051,-0.0056,-0.0137,-0.0181,-0.0208,-0.0263,-0.0314,-0.0335,-0.0341,-0.0343,-0.0336,-0.0372,-0.0327,-0.0325,-0.0363,-0.0363,-0.0364,-0.0349,0,0.0095,0.0141,0.0114,0.0157,0.0175,0.0123,0.0129,0.01,0.007,0.0061,-0.004,-0.0056,-0.0154,-0.0164,-0.0236,-0.0298,-0.0344,-0.0334,-0.0385,-0.0385,-0.0351,-0.0329,-0.031,-0.0293,-0.0352,-0.0352,-0.0353,0,0.0172,0.0185,0.0234,0.0237,0.0244,0.0258,0.0251,0.0252,0.0204,0.0181,0.0116,0.0059,-0.0028,-0.0102,-0.0233,-0.0217,-0.0298,-0.036,-0.0361,-0.0341,-0.0346,-0.0322,-0.0295,-0.0493,-0.0356,-0.0356,-0.0356,0,0.0236,0.0266,0.0301,0.0302,0.0304,0.0314,0.0312,0.0284,0.0309,0.0257,0.0281,0.0157,0.0139,-0.0009,-0.0141,-0.0185,-0.0256,-0.0326,-0.0364,-0.036,-0.0366,-0.0361,-0.0544,-0.0427,-0.0427,-0.0427,-0.0427,0,0.0301,0.0333,0.0334,0.0353,0.0414,0.0381,0.0444,0.0421,0.0426,0.0498,0.0348,0.0398,0.016,0.0096,-0.0075,-0.0193,-0.0202,-0.0353,-0.0359,-0.0345,-0.0339,-0.0529,-0.0646,-0.0426,-0.0426,-0.0426,-0.0427,0,0.0363,0.0361,0.0409,0.0425,0.0446,0.0484,0.0551,0.06,0.0579,0.0675,0.0672,0.0596,0.0519,0.0303,0.0116,-0.0059,-0.0305,-0.0252,-0.0194,-0.0195,-0.0445,-0.0558,-0.0725,-0.0805,-0.0309,-0.0308,-0.0307,0,0.0396,0.0424,0.0475,0.053,0.0543,0.0608,0.0669,0.0674,0.0752,0.0833,0.0902,0.0853,0.0873,0.0608,0.0285,0.0016,-0.0213,-0.0162,-0.0276,-0.0448,-0.058,-0.0671,-0.0735,-0.0256,-0.0254,-0.0253,-0.0252,0,0.0464,0.0478,0.0523,0.0633,0.0707,0.0806,0.0899,0.0997,0.105,0.1154,0.1305,0.1332,0.108,0.0828,0.0433,0.0216,-0.0298,-0.0148,-0.0365,-0.0582,-0.0658,-0.0738,-0.0251,-0.0243,-0.0244,-0.0245,-0.0245,-0.0246,0.0523,0.0574,0.0644,0.0753,0.0854,0.1005,0.1122,0.1259,0.1441,0.1641,0.1642,0.1729,0.1293,0.076,0.0436,-0.018,-0.0215,-0.0398,-0.0522,-0.0599,-0.0689,-0.015,-0.013,-0.013,-0.013,-0.013,-0.0131,0,0.0598,0.0665,0.0771,0.0909,0.1046,0.1076,0.1285,0.143,0.1694,0.1884,0.2034,0.1884,0.1361,0.0769,-0.0056,-0.049,-0.0685,-0.0739,-0.0914,-0.0964,-0.0517,-0.0529,-0.0547,-0.0546,-0.0546,-0.0546,-0.0546,-0.0546,0.0649,0.0757,0.0811,0.1052,0.1165,0.1367,0.1503,0.173,0.1909,0.2177,0.2248,0.2254,0.1777,0.032,-0.0664,-0.0892,-0.1243,-0.1294,-0.1455,-0.121,-0.119,-0.1171,-0.1212,-0.1373,-0.1374,-0.1856,-0.1861,-0.1865]}],[{"header":{"parameterUnit":"m.s-1","parameterCategory":2,"la1":30.2991,"la2":30.254,"lo1":-89.0895,"lo2":-89.0444,"dy":0.0017,"dx":0.0017,"nx":28,"ny":28,"refTime":"2025-03-10T21:00:00:Z","depth":"2","parameterNumber":2,"parameterNumberName":"U-component_of_CURRENTS"},"data":[0,0,0,0,0,0,0,0,0,0,0,0,0,0,0,0,0,0,0,0,0,0,0,0,0,0,0,0,0,0,0,0,0,0,0,0,0,0,0,0,0,0,0,0,0,0,0,0,0,0,0,0,0,0,0,0,0,0,0.2428,0.2429,0,0.2437,0.2437,0.2437,0.2479,0.248,0.2481,0.2482,0.2512,0.2512,0.2512,0,0,0,0,0,0,0,0,0,0,0,0,0,0.2389,0.239,0.2428,0.2429,0.2429,0.2437,0.2437,0.2437,0.2478,0.248,0.2481,0.2483,0.2512,0.2512,0.2512,0,0,0,0,0,0,0,0,0,0,0,0,0,0.2401,0.239,0.2428,0.2452,0.2454,0.2437,0.2437,0.2437,0.2478,0.248,0.2482,0.2483,0.2513,0.2512,0.2512,0.2475,0,0,0.2511,0.251,0,0,0,0,0,0,0,0,0.24,0.2402,0.2448,0.245,0.2453,0.246,0.2434,0.2451,0.2478,0.2467,0.2482,0.2484,0.2497,0.2498,0.2493,0.2476,0.2478,0.2511,0.251,0.251,0.251,0,0,0,0,0,0,0,0.24,0.2402,0.243,0.2448,0.2451,0.2442,0.2446,0.2437,0.2471,0.2468,0.2472,0.2475,0.2498,0.2493,0.2494,0.2478,0.2511,0.251,0.251,0.251,0.2524,0.2524,0,0,0,0,0,0,0.2403,0.2401,0.243,0.243,0.2432,0.2441,0.2446,0.2454,0.2471,0.2476,0.2473,0.2477,0.2493,0.2494,0.2495,0.2537,0.251,0.251,0.251,0.2523,0.2524,0.2524,0,0,0,0,0,0,0.2402,0.2406,0.2429,0.2417,0.242,0.2441,0.245,0.2454,0.2465,0.2475,0.248,0.2483,0.2494,0.2496,0.2514,0.2535,0.251,0.2509,0.2522,0.2523,0.2524,0.2565,0,0,0,0,0,0,0.2401,0.2405,0.2402,0.2417,0.2421,0.2438,0.2449,0.2453,0.2464,0.2469,0.2484,0.2488,0.2496,0.2515,0.2514,0.2534,0.2509,0.2522,0.2523,0.2524,0.2563,0.2568,0.2571,0,0,0,0,0,0.24,0.2386,0.2402,0.2405,0.242,0.2438,0.2439,0.2458,0.2463,0.2473,0.2488,0.2488,0.2522,0.2515,0.2513,0.2534,0.2521,0.2522,0.2524,0.2561,0.2567,0.2571,0,0,0,0,0,0,0.236,0.239,0.2408,0.2403,0.2431,0.2447,0.2446,0.2459,0.2474,0.2482,0.249,0.2495,0.2523,0.2515,0.2507,0.2541,0.2523,0.2524,0.2552,0.2557,0.2561,0.2616,0.2509,0,0,0,0,0,0.2352,0.2357,0.2391,0.239,0.2404,0.2426,0.2431,0.2453,0.247,0.2479,0.2492,0.2505,0.2521,0.253,0.254,0.2547,0.2587,0.2561,0.2565,0.2568,0.2612,0.2688,0.2705,0.2529,0.2529,0.2529,0,0,0.2332,0.2352,0.2352,0.2383,0.2402,0.2425,0.2434,0.2454,0.248,0.2478,0.2509,0.2518,0.2526,0.2551,0.2562,0.2551,0.2633,0.257,0.2573,0.2616,0.2692,0.271,0.2725,0.253,0.253,0.2529,0,0,0.2309,0.2324,0.233,0.2356,0.2396,0.2418,0.2428,0.246,0.2487,0.2507,0.2526,0.2558,0.2555,0.2591,0.2599,0.2626,0.2654,0.2617,0.2682,0.2754,0.277,0.2785,0.2839,0.2858,0.2617,0.2617,0.2617,0,0.2282,0.2309,0.2333,0.2355,0.2381,0.2419,0.2446,0.2469,0.2505,0.2547,0.2526,0.2597,0.2582,0.2659,0.2667,0.264,0.2685,0.266,0.2763,0.2779,0.2793,0.2845,0.2866,0.2619,0.2619,0.2618,0.2618,0,0.2281,0.2302,0.2309,0.2359,0.2387,0.2415,0.2466,0.2507,0.2533,0.2572,0.2656,0.266,0.2718,0.2702,0.2686,0.2789,0.2788,0.2761,0.2757,0.2814,0.2864,0.2885,0.2622,0.2621,0.2621,0.262,0,0,0.2223,0.2294,0.2298,0.2338,0.2399,0.2427,0.2487,0.2571,0.264,0.2676,0.2772,0.2793,0.2832,0.2848,0.285,0.2902,0.3005,0.288,0.2883,0.2947,0.3174,0.3078,0.3092,0.3006,0.301,0.3013,0.316,0,0.2222,0.2265,0.2308,0.2362,0.2395,0.2467,0.2526,0.2609,0.2677,0.2773,0.2834,0.2907,0.2877,0.2913,0.2971,0.3004,0.3068,0.2968,0.3101,0.3105,0.3024,0.3116,0.2862,0.2965,0.3181,0.3185,0.3187,0,0.2213,0.2251,0.2299,0.24,0.2425,0.247,0.261,0.2666,0.2813,0.2873,0.299,0.3039,0.3149,0.3089,0.3237,0.3182,0.3198,0.3212,0.3217,0.3141,0.305,0.2946,0.2996,0.3223,0.322,0.3218,0.3215,0,0.2173,0.225,0.2296,0.2322,0.2432,0.2495,0.2566,0.2707,0.2794,0.2955,0.3038,0.3182,0.3253,0.3329,0.3351,0.3315,0.3493,0.3434,0.3378,0.337,0.319,0.3158,0.3555,0.3555,0.3554,0.3554,0.3554,0,0.2157,0.2192,0.2288,0.2311,0.2404,0.2484,0.2613,0.2707,0.2868,0.298,0.3094,0.3204,0.332,0.3419,0.3429,0.3479,0.3563,0.3437,0.3422,0.319,0.3159,0.3406,0.3387,0.3559,0.3558,0.3557,0.3556,0,0.2102,0.2157,0.2219,0.2338,0.2384,0.245,0.2631,0.2721,0.2872,0.3024,0.308,0.3265,0.3387,0.3479,0.3593,0.3565,0.3613,0.36,0.3312,0.326,0.3427,0.3408,0.3588,0.3586,0.3585,0.3583,0.3582,0,0.2079,0.2099,0.2218,0.2271,0.2332,0.2451,0.2533,0.2703,0.2791,0.3042,0.3093,0.3286,0.3371,0.3521,0.3525,0.3572,0.361,0.3342,0.322,0.3474,0.3441,0.3424,0.3408,0.2992,0.2987,0.2982,0.2978,0,0.2041,0.2081,0.2143,0.2241,0.233,0.2419,0.2541,0.2611,0.2797,0.2914,0.3052,0.3148,0.3315,0.3252,0.3325,0.3305,0.3315,0.3246,0.3627,0.3007,0.292,0.2885,0.2887,0.2936,0.294,0.2943,0.2946,0.2947,0.2027,0.2063,0.2143,0.223,0.2312,0.2358,0.2402,0.2502,0.2602,0.2733,0.289,0.2946,0.303,0.3011,0.2941,0.2905,0.3122,0.2982,0.2994,0.3012,0.2901,0.2814,0.279,0.2793,0.2796,0.2799,0.2801,0,0.2033,0.2069,0.2133,0.2226,0.2251,0.2318,0.2385,0.2373,0.2406,0.254,0.2627,0.2485,0.2474,0.2552,0.244,0.2454,0.2406,0.235,0.226,0.2307,0.2347,0.2197,0.1902,0.1899,0.1896,0.1893,0,0,0.2055,0.2096,0.2112,0.2135,0.2185,0.2174,0.2177,0.2147,0.2187,0.216,0.2184,0.2396,0.25,0.217,0.2141,0.1997,0.2127,0.1924,0.2657,0.26,0.2635,0.2738,0.2565,0,0,0,0,0]},{"header":{"parameterUnit":"m.s-1","parameterCategory":2,"la1":30.2991,"la2":30.254,"lo1":-89.0895,"lo2":-89.0444,"dy":0.0017,"dx":0.0017,"nx":28,"ny":28,"refTime":"2025-03-10T21:00:00:Z","depth":"2","parameterNumber":3,"parameterNumberName":"V-component_of_CURRENTS"},"data":[0,0,0,0,0,0,0,0,0,0,0,0,0,0,0,0,0,0,0,0,0,0,0,0,0,0,0,0,0,0,0,0,0,0,0,0,0,0,0,0,0,0,0,0,0,0,0,0,0,0,0,0,0,0,0,0,0,0,0.0038,0.0037,0,-0.0027,-0.0028,-0.0029,-0.008,-0.008,-0.0081,-0.0081,-0.0174,-0.0176,-0.0178,0,0,0,0,0,0,0,0,0,0,0,0,0,0.0116,0.0114,0.0038,0.0037,0.0037,-0.0027,-0.0028,-0.0029,-0.008,-0.008,-0.0081,-0.0081,-0.0173,-0.0175,-0.0178,0,0,0,0,0,0,0,0,0,0,0,0,0,0.0068,0.0114,0.0038,0.0005,0.0001,-0.0027,-0.0028,-0.003,-0.008,-0.008,-0.0081,-0.0082,-0.0172,-0.0175,-0.0178,-0.0186,0,0,-0.0188,-0.0189,0,0,0,0,0,0,0,0,0.0071,0.0065,0.001,0.0007,0.0003,-0.0045,-0.0035,-0.0083,-0.008,-0.005,-0.0081,-0.0082,-0.0132,-0.0138,-0.0151,-0.019,-0.0194,-0.0188,-0.019,-0.0191,-0.0192,0,0,0,0,0,0,0,0.0074,0.0068,0.0011,0.001,0.0005,-0.0009,-0.0016,-0.0044,-0.0088,-0.0053,-0.0056,-0.0062,-0.0134,-0.0147,-0.0153,-0.0196,-0.0188,-0.0191,-0.0193,-0.0194,-0.0256,-0.0256,0,0,0,0,0,0,0.0085,0.0071,0.0013,0.0009,0.0037,-0.0009,-0.0018,-0.003,-0.0088,-0.0096,-0.0061,-0.0064,-0.0142,-0.015,-0.0157,-0.017,-0.0191,-0.0194,-0.0196,-0.0256,-0.0256,-0.0256,0,0,0,0,0,0,0.0087,0.008,0.0016,0.004,0.0031,-0.001,-0.0023,-0.0031,-0.0047,-0.0094,-0.0103,-0.007,-0.0143,-0.0152,-0.0184,-0.0174,-0.0196,-0.0199,-0.0257,-0.0256,-0.0256,-0.0196,0,0,0,0,0,0,0.0089,0.0081,0.0078,0.004,0.003,0.0001,-0.0023,-0.0032,-0.0049,-0.0053,-0.0104,-0.0113,-0.0144,-0.0179,-0.0187,-0.0179,-0.0201,-0.0257,-0.0256,-0.0256,-0.0199,-0.0194,-0.019,0,0,0,0,0,0.0092,0.0092,0.0078,0.0071,0.0026,0.0002,-0.0005,-0.0037,-0.0049,-0.0054,-0.0089,-0.0112,-0.0182,-0.0181,-0.0191,-0.0183,-0.0257,-0.0257,-0.0256,-0.0201,-0.0195,-0.019,0,0,0,0,0,0,0.0119,0.0086,0.007,0.0057,0.0032,-0.0007,-0.0012,-0.0033,-0.0064,-0.0067,-0.0113,-0.0124,-0.0149,-0.0174,-0.0172,-0.02,-0.0222,-0.0223,-0.0176,-0.0171,-0.0167,-0.0146,-0.0204,0,0,0,0,0,0.0126,0.012,0.0082,0.0073,0.0062,0.0026,0.0013,-0.0007,-0.0039,-0.0053,-0.0089,-0.0124,-0.0153,-0.0168,-0.02,-0.0214,-0.0237,-0.0215,-0.0211,-0.0207,-0.0197,-0.0223,-0.022,-0.0254,-0.0254,-0.0254,0,0,0.0135,0.0116,0.0112,0.008,0.0058,0.005,0.0016,0.0001,-0.0002,-0.0058,-0.0075,-0.0113,-0.0155,-0.0173,-0.0185,-0.0193,-0.021,-0.0206,-0.0202,-0.0194,-0.0222,-0.0219,-0.0215,-0.0254,-0.0254,-0.0254,0,0,0.0156,0.0132,0.0135,0.0118,0.0091,0.0071,0.0069,0.0031,0.0016,-0.0007,-0.0045,-0.0073,-0.0123,-0.0144,-0.0162,-0.0152,-0.019,-0.0166,-0.0124,-0.0149,-0.0146,-0.0144,-0.017,-0.017,-0.0159,-0.0159,-0.0159,0,0.017,0.0165,0.0133,0.0131,0.013,0.0084,0.0093,0.007,0.0027,0.0028,-0.0005,-0.0064,-0.0104,-0.0114,-0.0117,-0.014,-0.0165,-0.0139,-0.0142,-0.0141,-0.0139,-0.0166,-0.0168,-0.0156,-0.0157,-0.0157,-0.0157,0,0.019,0.0188,0.0189,0.0176,0.017,0.0169,0.0139,0.0131,0.0107,0.0084,0.0061,0.0,-0.0029,-0.0051,-0.0085,-0.0091,-0.0115,-0.0136,-0.0152,-0.0132,-0.0162,-0.0165,-0.0152,-0.0153,-0.0154,-0.0155,0,0,0.0221,0.0208,0.021,0.0227,0.0198,0.0205,0.0203,0.0199,0.022,0.0156,0.0174,0.0101,0.0067,0.0044,-0.0003,-0.0033,-0.0055,-0.0079,-0.0082,-0.0098,-0.0115,-0.0135,-0.014,-0.0081,-0.0081,-0.0081,-0.014,0,0.025,0.0272,0.0255,0.029,0.0305,0.0281,0.0293,0.0285,0.0266,0.0268,0.0202,0.0186,0.0104,0.0093,0.0048,-0.0022,-0.0059,-0.0037,-0.0137,-0.014,-0.0155,-0.0142,-0.0117,-0.0168,-0.0142,-0.0143,-0.0143,0,0.0278,0.0295,0.0331,0.0373,0.0379,0.0391,0.043,0.0436,0.0418,0.0405,0.0366,0.0307,0.0254,0.0181,0.0062,0.0078,-0.0014,-0.008,-0.0084,-0.0123,-0.0164,-0.0184,-0.0174,-0.0148,-0.0147,-0.0147,-0.0147,0,0.0333,0.0359,0.04,0.0405,0.0429,0.0456,0.0475,0.0477,0.0518,0.0492,0.0508,0.0418,0.0395,0.0262,0.0107,0.0085,-0.0022,-0.0065,-0.0172,-0.0174,-0.0182,-0.0185,-0.015,-0.015,-0.015,-0.015,-0.015,0,0.0376,0.0414,0.0431,0.0453,0.0535,0.0523,0.0607,0.061,0.0635,0.0701,0.0583,0.0604,0.0413,0.0321,0.0155,-0.0007,0.0012,-0.0158,-0.0187,-0.0161,-0.0162,-0.0167,-0.0168,-0.0152,-0.0152,-0.0151,-0.0151,0,0.0426,0.0428,0.0489,0.053,0.0559,0.0618,0.071,0.077,0.0767,0.085,0.0846,0.0761,0.0631,0.0429,0.0235,0.008,-0.0089,-0.0156,-0.0114,-0.0137,-0.024,-0.0238,-0.0279,-0.028,-0.0281,-0.0282,-0.0282,0,0.0451,0.048,0.0557,0.0618,0.064,0.0729,0.0801,0.0837,0.0913,0.0952,0.1003,0.0898,0.0835,0.0528,0.0241,-0.0043,-0.0085,-0.02,-0.0243,-0.0228,-0.0252,-0.0248,-0.0244,-0.0233,-0.0233,-0.0234,-0.0234,0,0.051,0.0529,0.0587,0.0707,0.0793,0.0904,0.1007,0.1091,0.1146,0.1193,0.1238,0.1182,0.089,0.0599,0.0212,0.0024,-0.0157,-0.0213,-0.0196,-0.0203,-0.0189,-0.0212,-0.0209,-0.0235,-0.0235,-0.0235,-0.0235,-0.0235,0.0562,0.062,0.0698,0.0819,0.0925,0.1061,0.1171,0.1266,0.1385,0.1465,0.1413,0.133,0.1002,0.0496,0.0164,-0.0172,-0.0168,-0.029,-0.0288,-0.0286,-0.0268,-0.0257,-0.0312,-0.0313,-0.0313,-0.0313,-0.0313,0,0.0632,0.0701,0.0813,0.0958,0.1083,0.1127,0.1304,0.1394,0.1528,0.1572,0.1582,0.1267,0.0923,0.0551,0.0041,-0.0267,-0.0284,-0.0351,-0.0314,-0.031,-0.0307,-0.029,-0.0341,-0.0342,-0.0343,-0.0344,0,0,0.0679,0.079,0.0849,0.1066,0.1174,0.1352,0.1458,0.1566,0.1631,0.1652,0.1604,0.1498,0.103,0.0661,0.0235,-0.0056,-0.0103,-0.0102,-0.0047,0.0051,0.0058,-0.0242,-0.0208,0,0,0,0,0]}],[{"header":{"parameterUnit":"m.s-1","parameterCategory":2,"la1":30.2991,"la2":30.254,"lo1":-89.0895,"lo2":-89.0444,"dy":0.0017,"dx":0.0017,"nx":28,"ny":28,"refTime":"2025-03-10T21:00:00:Z","depth":"4","parameterNumber":2,"parameterNumberName":"U-component_of_CURRENTS"},"data":[0,0,0,0,0,0,0,0,0,0,0,0,0,0,0,0,0,0,0,0,0,0,0,0,0,0,0,0,0,0,0,0,0,0,0,0,0,0,0,0,0,0,0,0,0,0,0,0,0,0,0,0,0,0,0,0,0,0,0.1434,0.1435,0,0.1532,0.1533,0.1534,0.161,0.161,0.1611,0.1611,0.1719,0.1722,0.1724,0,0,0,0,0,0,0,0,0,0,0,0,0,0.1294,0.1297,0.1434,0.1435,0.1436,0.1532,0.1533,0.1535,0.1609,0.161,0.1611,0.1612,0.1719,0.1721,0.1724,0,0,0,0,0,0,0,0,0,0,0,0,0,0.137,0.1298,0.1434,0.1485,0.149,0.1532,0.1533,0.1535,0.1609,0.161,0.1611,0.1612,0.1718,0.1721,0.1725,0.1726,0,0,0.1735,0.1736,0,0,0,0,0,0,0,0,0.1366,0.1376,0.1476,0.1481,0.1488,0.1559,0.1524,0.1599,0.1609,0.1565,0.1611,0.1613,0.1666,0.1673,0.169,0.1731,0.1735,0.1735,0.1737,0.1739,0.174,0,0,0,0,0,0,0,0.1361,0.1372,0.1473,0.1477,0.1484,0.1497,0.1509,0.1538,0.1609,0.1569,0.1574,0.1584,0.1669,0.1687,0.1693,0.1737,0.1735,0.1738,0.174,0.1742,0.1868,0.1869,0,0,0,0,0,0,0.1348,0.1367,0.147,0.1476,0.1427,0.1499,0.1512,0.1536,0.1609,0.1621,0.1583,0.1587,0.1681,0.1689,0.1697,0.1779,0.1739,0.1742,0.1744,0.1867,0.1868,0.187,0,0,0,0,0,0,0.1345,0.1357,0.1466,0.1422,0.1437,0.15,0.1526,0.1537,0.159,0.1619,0.1632,0.1628,0.1682,0.1693,0.1759,0.1781,0.1743,0.1746,0.1865,0.1867,0.1869,0.1893,0,0,0,0,0,0,0.1341,0.1355,0.1387,0.1422,0.1439,0.1518,0.1525,0.1538,0.1592,0.1599,0.1661,0.167,0.1683,0.1754,0.1762,0.1785,0.1749,0.1864,0.1866,0.1869,0.1891,0.1896,0.19,0,0,0,0,0,0.1335,0.1368,0.1388,0.1401,0.1475,0.152,0.1531,0.1577,0.1593,0.1627,0.1668,0.167,0.1775,0.1758,0.1768,0.1792,0.1862,0.1865,0.1868,0.1889,0.1895,0.19,0,0,0,0,0,0,0.1334,0.138,0.1402,0.1452,0.1495,0.1533,0.1571,0.1595,0.1654,0.1671,0.1693,0.1706,0.1771,0.178,0.1761,0.1835,0.1816,0.1821,0.1829,0.1835,0.1839,0.1826,0.1752,0,0,0,0,0,0.1344,0.138,0.1424,0.1469,0.1492,0.1536,0.1567,0.1599,0.1644,0.1673,0.1713,0.1753,0.1784,0.1811,0.1846,0.1889,0.1903,0.1909,0.1914,0.1917,0.1914,0.1956,0.1964,0.188,0.188,0.188,0,0,0.1354,0.1386,0.1408,0.147,0.1508,0.1544,0.1559,0.1618,0.165,0.1673,0.1746,0.1779,0.1802,0.1853,0.1881,0.1868,0.1954,0.1921,0.1924,0.1918,0.196,0.1968,0.1975,0.1882,0.1881,0.1881,0,0,0.1378,0.1425,0.1459,0.1494,0.1556,0.1578,0.16,0.166,0.1698,0.176,0.1781,0.1826,0.1887,0.1901,0.1912,0.1962,0.1981,0.1983,0.1993,0.2035,0.2042,0.2048,0.2093,0.2103,0.198,0.1981,0.1981,0,0.139,0.1438,0.1478,0.1516,0.1542,0.1593,0.1627,0.1669,0.1745,0.1771,0.1791,0.1878,0.1899,0.1938,0.1956,0.1971,0.2007,0.1968,0.204,0.2047,0.2052,0.2097,0.2108,0.1982,0.1982,0.1982,0.1982,0,0.1428,0.1476,0.15,0.1557,0.1591,0.1635,0.1681,0.1734,0.1776,0.1809,0.1882,0.192,0.1965,0.1979,0.1982,0.2035,0.2052,0.2044,0.2022,0.2062,0.2107,0.2118,0.1984,0.1984,0.1983,0.1983,0,0,0.1422,0.1508,0.1519,0.154,0.1615,0.1636,0.1699,0.1751,0.1794,0.1864,0.1915,0.1961,0.1993,0.2007,0.2028,0.2058,0.213,0.2074,0.2075,0.2112,0.2243,0.2114,0.2114,0.2147,0.2149,0.215,0.2263,0,0.144,0.1497,0.1542,0.1588,0.1613,0.1669,0.1717,0.1773,0.1833,0.1903,0.1941,0.2009,0.2001,0.2044,0.2069,0.213,0.2158,0.21,0.2204,0.2207,0.2081,0.212,0.2155,0.2271,0.2274,0.2275,0.2277,0,0.1454,0.1486,0.1536,0.1589,0.1607,0.1647,0.1716,0.177,0.1869,0.193,0.1998,0.2045,0.2113,0.21,0.22,0.2176,0.2207,0.2236,0.2241,0.2114,0.2096,0.222,0.2296,0.2294,0.2293,0.2292,0.229,0,0.1399,0.1472,0.1503,0.1525,0.1603,0.1638,0.1685,0.1779,0.1844,0.1963,0.2041,0.211,0.2191,0.223,0.2288,0.2267,0.2395,0.2369,0.2276,0.2269,0.2341,0.2333,0.2419,0.2419,0.2419,0.2419,0.2418,0,0.1378,0.1403,0.1483,0.1499,0.154,0.1605,0.1676,0.1751,0.1878,0.1956,0.2058,0.2137,0.2234,0.2311,0.2326,0.2339,0.2429,0.228,0.2284,0.2351,0.2343,0.2349,0.234,0.2423,0.2422,0.2421,0.242,0,0.1316,0.1377,0.1409,0.149,0.1521,0.1549,0.1679,0.1733,0.1878,0.1993,0.2046,0.2205,0.2308,0.2376,0.2465,0.2396,0.2413,0.2389,0.2479,0.2486,0.2251,0.2242,0.2292,0.2289,0.2285,0.2283,0.2281,0,0.1287,0.1303,0.1389,0.1412,0.1456,0.1522,0.1579,0.1725,0.1791,0.201,0.2053,0.2219,0.2298,0.2334,0.2404,0.2429,0.2392,0.2384,0.2276,0.2237,0.2237,0.2233,0.2228,0.2276,0.2275,0.2274,0.2273,0,0.1222,0.127,0.1296,0.1353,0.1408,0.1457,0.1547,0.1596,0.1764,0.1916,0.2021,0.2084,0.2201,0.2256,0.2301,0.2303,0.2375,0.235,0.2355,0.2253,0.2218,0.2219,0.2218,0.2262,0.2264,0.2265,0.2265,0,0.1172,0.1174,0.123,0.1264,0.1334,0.1365,0.1425,0.1506,0.16,0.1833,0.1862,0.2037,0.218,0.2194,0.2229,0.223,0.2185,0.2093,0.211,0.2123,0.2011,0.1937,0.19,0,0,0,0,0,0.111,0.1106,0.1134,0.1167,0.1238,0.1281,0.1391,0.1459,0.1628,0.1657,0.1756,0.1849,0.1933,0.2023,0.199,0.2145,0.2184,0.2095,0.2084,0.2201,0.2214,0.2094,0,0,0,0,0,0,0.1064,0.1089,0.1097,0.1088,0.1098,0.1165,0.1232,0.1342,0.1363,0.1542,0.16,0.1733,0.1841,0.1936,0.1955,0.1979,0.1932,0.22,0.2195,0.2194,0.2206,0.2216,0.2097,0,0,0,0,0]},{"header":{"parameterUnit":"m.s-1","parameterCategory":2,"la1":30.2991,"la2":30.254,"lo1":-89.0895,"lo2":-89.0444,"dy":0.0017,"dx":0.0017,"nx":28,"ny":28,"refTime":"2025-03-10T21:00:00:Z","depth":"4","parameterNumber":3,"parameterNumberName":"V-component_of_CURRENTS"},"data":[0,0,0,0,0,0,0,0,0,0,0,0,0,0,0,0,0,0,0,0,0,0,0,0,0,0,0,0,0,0,0,0,0,0,0,0,0,0,0,0,0,0,0,0,0,0,0,0,0,0,0,0,0,0,0,0,0,0,0.0133,0.0133,0,0.0069,0.0069,0.0068,0.0039,0.004,0.004,0.004,-0.0041,-0.0043,-0.0046,0,0,0,0,0,0,0,0,0,0,0,0,0,0.0205,0.0204,0.0133,0.0133,0.0132,0.0069,0.0068,0.0068,0.0039,0.004,0.004,0.004,-0.004,-0.0043,-0.0046,0,0,0,0,0,0,0,0,0,0,0,0,0,0.016,0.0204,0.0133,0.0111,0.0108,0.007,0.0068,0.0067,0.0039,0.004,0.004,0.004,-0.0039,-0.0043,-0.0046,-0.0072,0,0,-0.0057,-0.0058,0,0,0,0,0,0,0,0,0.0163,0.0157,0.0115,0.0112,0.0109,0.0063,0.0064,0.002,0.0039,0.0065,0.004,0.004,-0.0007,-0.0014,-0.0027,-0.0076,-0.008,-0.0057,-0.0059,-0.0061,-0.0062,0,0,0,0,0,0,0,0.0166,0.016,0.0107,0.0114,0.0111,0.0095,0.0089,0.0055,0.0027,0.0062,0.006,0.0055,-0.0009,-0.0024,-0.0029,-0.0081,-0.0057,-0.006,-0.0062,-0.0064,-0.0141,-0.0141,0,0,0,0,0,0,0.0176,0.0163,0.0109,0.0105,0.0138,0.0094,0.0087,0.0077,0.0028,0.0021,0.0054,0.0054,-0.0018,-0.0025,-0.0032,-0.0043,-0.0061,-0.0064,-0.0066,-0.0141,-0.0141,-0.0141,0,0,0,0,0,0,0.0178,0.0172,0.0112,0.0134,0.0125,0.0093,0.0082,0.0076,0.0061,0.0022,0.0015,0.0046,-0.0018,-0.0027,-0.006,-0.0047,-0.0065,-0.0069,-0.0141,-0.0141,-0.0141,-0.008,0,0,0,0,0,0,0.018,0.0173,0.0168,0.0134,0.0124,0.009,0.0081,0.0074,0.0058,0.0056,0.0012,0.0005,-0.0018,-0.0055,-0.0064,-0.0053,-0.0071,-0.0141,-0.0141,-0.0141,-0.0082,-0.0078,-0.0075,0,0,0,0,0,0.0183,0.0173,0.0168,0.0161,0.0118,0.009,0.0083,0.0061,0.0057,0.0049,0.0022,0.0006,-0.006,-0.0058,-0.0068,-0.0058,-0.0141,-0.0141,-0.0141,-0.0084,-0.0079,-0.0075,0,0,0,0,0,0,0.0194,0.0169,0.0162,0.0143,0.012,0.0086,0.0075,0.0061,0.0033,0.0033,-0.0001,-0.0011,-0.0034,-0.0059,-0.0055,-0.0081,-0.0101,-0.0103,-0.0054,-0.005,-0.0046,-0.0016,-0.0074,0,0,0,0,0,0.0197,0.0188,0.0159,0.0144,0.0135,0.0106,0.0092,0.0078,0.0051,0.0039,0.001,-0.0019,-0.0043,-0.0056,-0.0087,-0.0105,-0.0129,-0.0104,-0.01,-0.0096,-0.008,-0.0103,-0.0099,-0.0141,-0.0141,-0.0141,0,0,0.0197,0.0183,0.0177,0.0148,0.0129,0.012,0.0098,0.0079,0.0079,0.0033,0.002,-0.0013,-0.0047,-0.0064,-0.0075,-0.0082,-0.0103,-0.0096,-0.0093,-0.0078,-0.0102,-0.0098,-0.0094,-0.0141,-0.0141,-0.0141,0,0,0.0199,0.0182,0.0179,0.0164,0.0141,0.0127,0.0124,0.0092,0.0085,0.0061,0.0038,0.002,-0.0032,-0.0038,-0.0051,-0.0046,-0.0086,-0.0064,-0.0015,-0.0037,-0.0034,-0.0031,-0.0075,-0.0076,-0.0056,-0.0056,-0.0056,0,0.0202,0.0196,0.0172,0.0166,0.0167,0.0135,0.014,0.0123,0.0086,0.0094,0.0064,0.002,-0.0012,-0.0007,-0.0005,-0.0033,-0.0066,-0.0027,-0.003,-0.0028,-0.0026,-0.0072,-0.0074,-0.0053,-0.0053,-0.0054,-0.0054,0,0.0202,0.0202,0.0198,0.019,0.0185,0.0181,0.0165,0.0163,0.015,0.0135,0.0126,0.0079,0.0063,0.0045,0.0019,0.0027,-0.001,-0.0026,-0.0036,-0.0017,-0.0068,-0.0071,-0.0049,-0.005,-0.0051,-0.0051,0,0,0.0206,0.0202,0.0204,0.0223,0.0205,0.0209,0.0217,0.0226,0.0248,0.0203,0.0222,0.0181,0.0158,0.0142,0.0108,0.0089,0.0065,0.0042,0.0039,0.0008,-0.0007,-0.0032,-0.0038,0.0044,0.0044,0.0044,-0.0056,0,0.022,0.0235,0.0228,0.0259,0.0272,0.0269,0.0287,0.0293,0.0282,0.0285,0.0252,0.024,0.0193,0.0185,0.016,0.0088,0.0062,0.0093,-0.0029,-0.0033,-0.0048,-0.004,0.0045,-0.0058,-0.0059,-0.006,-0.006,0,0.0229,0.0245,0.0275,0.0325,0.0332,0.0348,0.0399,0.0409,0.0407,0.0398,0.0382,0.0336,0.0307,0.0257,0.0159,0.0175,0.0096,0.0035,0.0029,-0.001,-0.0062,-0.0079,-0.0066,-0.0066,-0.0066,-0.0065,-0.0065,0,0.0262,0.0289,0.0327,0.0335,0.0369,0.0405,0.0432,0.0449,0.048,0.0469,0.0473,0.0419,0.0388,0.0294,0.016,0.0157,0.0034,0.0014,-0.0082,-0.0086,-0.0061,-0.0063,-0.0046,-0.0046,-0.0046,-0.0046,-0.0045,0,0.0285,0.032,0.0351,0.0371,0.0446,0.0453,0.0528,0.0543,0.0565,0.0599,0.0535,0.0529,0.0396,0.0303,0.018,0.0034,0.0047,-0.0068,-0.0104,-0.0038,-0.0036,-0.0065,-0.0066,-0.005,-0.0049,-0.0048,-0.0047,0,0.0311,0.0322,0.0378,0.0432,0.046,0.0515,0.0599,0.0646,0.0653,0.0691,0.0689,0.0612,0.0483,0.0334,0.0164,0.0065,-0.0075,-0.013,-0.0062,-0.0094,-0.0189,-0.0185,-0.0239,-0.0241,-0.0242,-0.0243,-0.0244,0,0.0322,0.0348,0.0426,0.0473,0.0502,0.0585,0.0645,0.0689,0.0733,0.0736,0.075,0.0644,0.0567,0.0314,0.0147,-0.0089,-0.012,-0.0195,-0.0173,-0.0173,-0.0204,-0.0199,-0.0194,-0.0246,-0.0246,-0.0247,-0.0247,0,0.0352,0.0378,0.0427,0.0518,0.0592,0.068,0.076,0.0799,0.0838,0.0845,0.0801,0.0668,0.0517,0.0313,0.0125,-0.0042,-0.0145,-0.0209,-0.0207,-0.0187,-0.0182,-0.021,-0.0204,-0.0251,-0.0251,-0.025,-0.025,0,0.0377,0.042,0.0482,0.0567,0.0657,0.0738,0.0786,0.0832,0.0875,0.087,0.0847,0.0684,0.0592,0.0335,0.0162,-0.0007,-0.0046,-0.0092,-0.0097,-0.0094,-0.0023,0.0005,-0.0029,0,0,0,0,0,0.0398,0.0449,0.0528,0.0619,0.0703,0.0759,0.0846,0.0881,0.0913,0.0892,0.0875,0.0731,0.0474,0.0361,0.0189,0.0126,-0.0085,-0.0082,-0.0142,-0.0275,-0.027,-0.0214,0,0,0,0,0,0,0.0415,0.0487,0.0529,0.0639,0.0704,0.0804,0.0862,0.0887,0.0876,0.0876,0.0742,0.0685,0.0434,0.057,0.0183,0.0131,0.007,-0.02,-0.0203,-0.0278,-0.0274,-0.027,-0.021,0,0,0,0,0]}]]